x

9442396 - La Push, Wa (lapw1) Weather Station

2:36pm - Sat 27th Aug 2016 All times are PDT. -7 hours from GMT.

  • Wind
    6mph, 8mph gusts
  • Sea Temp 49°f
  • Air Temp 58°f
  • Sea Pressure 1014.6mb
  • 9442396 - La Push, Wa
  • 9442396 - La Push, Wa

More Historic Weather Station data

Upgrade to MSW Pro to gain access to the past 30 days of data for over 8000 Wavebouys and Weather Stations around the globe.

Join Pro

Comparision Forecast

View Surf forecast
   
Sat 08/27 2:36pm 6 8 mph 1014.6mb 49f 58f
2:30pm 6 8 mph 1014.6mb 49f 58f
2:24pm 6 8 mph 1014.6mb 49f 58f
2:18pm 7 9 mph 1014.7mb 49f 58f
2:12pm 7 9 mph 1014.6mb 48f 58f
2:06pm 7 10 mph 1014.6mb 48f 58f
2:00pm 7 9 mph 1014.6mb 48f 58f
1:36pm 7 8 mph 1014.2mb 48f 58f
1:30pm 7 9 mph 1014.2mb 48f 58f
1:24pm 6 8 mph 1014.2mb 48f 58f
1:18pm 5 10 mph 1014.1mb 48f 58f
1:12pm 7 10 mph 1014.1mb 48f 58f
1:06pm 6 10 mph 1014mb 48f 58f
1:00pm 7 9 mph 1014mb 48f 57f
12:36pm 8 10 mph 1013.8mb 48f 58f
12:30pm 9 11 mph 1013.8mb 48f 58f
12:24pm 8 10 mph 1013.8mb 48f 58f
12:18pm 8 10 mph 1013.7mb 48f 58f
12:12pm 9 11 mph 1013.6mb 48f 57f
12:06pm 8 13 mph 1013.5mb 48f 57f
12:00pm 9 13 mph 1013.4mb 48f 57f
11:36am 11 14 mph 1013.1mb 48f 57f
11:30am 9 13 mph 1013mb 48f 56f
11:24am 10 11 mph 1013.1mb 48f 56f
11:18am 9 14 mph 1013mb 48f 56f
11:12am 9 13 mph 1012.8mb 48f 56f
11:06am 10 14 mph 1012.8mb 48f 56f
11:00am 10 13 mph 1012.9mb 48f 56f
10:36am 9 11 mph 1012.6mb 48f 56f
10:30am 8 11 mph 1012.6mb 48f 56f
10:24am 9 11 mph 1012.6mb 49f 56f
10:18am 8 10 mph 1012.5mb 48f 55f
10:12am 7 9 mph 1012.5mb 48f 56f
10:06am 7 9 mph 1012.5mb 48f 56f
10:00am 8 9 mph 1012.5mb 48f 56f
9:36am 6 8 mph 1012.3mb 49f 55f
9:30am 6 8 mph 1012.3mb 49f 55f
9:24am 6 8 mph 1012.3mb 49f 55f
9:18am 6 9 mph 1012.3mb 49f 55f
9:12am 7 9 mph 1012.3mb 49f 55f
9:06am 6 9 mph 1012.3mb 49f 55f
9:00am 7 10 mph 1012.2mb 49f 55f
8:36am 6 10 mph 1012.1mb 49f 55f
8:30am 8 10 mph 1012.1mb 49f 55f
8:24am 8 9 mph 1012mb 49f 55f
8:18am 7 11 mph 1011.9mb 49f 55f
8:12am 7 9 mph 1011.9mb 49f 55f
8:06am 7 10 mph 1011.9mb 49f 55f
8:00am 7 8 mph 1011.9mb 49f 55f
7:36am 6 8 mph 1011.9mb 49f 55f
7:30am 6 8 mph 1011.8mb 49f 56f
7:24am 5 7 mph 1011.8mb 49f 56f
7:18am 5 6 mph 1011.9mb 49f 56f
7:12am 5 7 mph 1011.7mb 49f 55f
7:06am 6 7 mph 1011.8mb 49f 55f
7:00am 5 7 mph 1011.8mb 49f 56f
6:36am 7 9 mph 1011.5mb 49f 56f
6:30am 6 8 mph 1011.5mb 50f 56f
6:24am 6 8 mph 1011.4mb 49f 55f
6:18am 5 7 mph 1011.5mb 49f 55f
6:12am 6 8 mph 1011.5mb 50f 55f
6:06am 5 6 mph 1011.5mb 50f 54f
6:00am 3 6 mph 1011.5mb 51f 55f
5:36am 6 8 mph 1011.4mb 51f 56f
5:30am 6 7 mph 1011.3mb 51f 56f
5:24am 6 7 mph 1011.4mb 51f 56f
5:18am 6 7 mph 1011.3mb 51f 56f
5:12am 6 7 mph 1011.4mb 51f 56f
5:06am 5 7 mph 1011.3mb 51f 56f
5:00am 5
mph
1011.3mb 52f 56f
4:36am 3 5 mph 1011.3mb 53f 56f
4:30am 3 5 mph 1011.3mb 53f 55f
4:24am 3 5 mph 1011.2mb 54f 55f
4:18am 3
mph
1011.2mb 54f 55f
4:12am 3 5 mph 1011.1mb 54f 55f
4:06am 2 5 mph 1011mb 55f 54f
4:00am 3 5 mph 1011.1mb 55f 54f
3:36am 5 7 mph 1010.9mb 56f 55f
3:30am 6 9 mph 1010.9mb 56f 55f
3:24am 6 7 mph 1010.9mb 56f 56f
3:18am 6 7 mph 1010.8mb 56f 56f
3:12am 5 8 mph 1010.7mb 56f 56f
3:06am 6 8 mph 1010.6mb 56f 57f
3:00am 6 8 mph 1010.6mb 56f 57f
2:36am 5 6 mph 1010.4mb 56f 57f
2:30am 3 5 mph 1010.4mb 56f 56f
2:24am 3 5 mph 1010.5mb 56f 56f
2:18am 3 5 mph 1010.5mb 56f 56f
2:12am 3 5 mph 1010.4mb 56f 56f
2:06am 3 5 mph 1010.4mb 54f 56f
2:00am 3 5 mph 1010.6mb 54f 57f
1:36am 2
mph
1010.4mb 50f 56f
1:30am 2
mph
1010.4mb 49f 56f
1:24am 2
mph
1010.5mb 49f 56f
1:18am 1
mph
1010.6mb 49f 56f
1:12am 1
mph
1010.5mb 49f 56f
1:06am  -  1 mph 1010.5mb 49f 56f
1:00am  -  1 mph 1010.5mb 48f 56f
12:36am 1 2 mph 1010.5mb 48f 57f
12:30am 1 2 mph 1010.5mb 48f 57f
12:24am  -  2 mph 1010.5mb 48f 57f
12:18am 1 3 mph 1010.5mb 48f 57f
12:12am 2 3 mph 1010.6mb 48f 57f
12:06am 3
mph
1010.6mb 48f 57f
12:00am 2 3 mph 1010.6mb 48f 57f
Fri 08/26 11:36pm 2 3 mph 1010.5mb 48f 57f
11:30pm 2 3 mph 1010.6mb 48f 57f
11:24pm 3
mph
1010.6mb 48f 57f
11:18pm 3
mph
1010.6mb 48f 57f
11:12pm 3
mph
1010.6mb 48f 57f
11:06pm 2 3 mph 1010.6mb 48f 57f
11:00pm 3
mph
1010.7mb 48f 57f
10:36pm 2 3 mph 1010.9mb 48f 57f
10:30pm 2 3 mph 1010.9mb 48f 57f
10:24pm 2 3 mph 1011mb 48f 58f
10:18pm 2 3 mph 1011mb 48f 58f
10:12pm 2
mph
1010.8mb 48f 58f
10:06pm 1 2 mph 1010.8mb 48f 58f
10:00pm  -  2 mph 1010.8mb 48f 58f
9:36pm 3
mph
1011.2mb 48f 57f
9:30pm 2 3 mph 1011.2mb 48f 57f
9:24pm 3
mph
1011.3mb 48f 57f
9:18pm 2 3 mph 1011.4mb 48f 58f
9:12pm 3 5 mph 1011.3mb 48f 58f
9:06pm 1 2 mph 1011.2mb 48f 58f
9:00pm 2
mph
1011.2mb 48f 58f
8:36pm 2 3 mph 1011mb 48f 60f
8:30pm 2 3 mph 1011mb 48f 60f
8:24pm 2
mph
1010.8mb 48f 60f
8:18pm 2 3 mph 1010.8mb 48f 60f
8:12pm 2 3 mph 1010.9mb 48f 60f
8:06pm 2 3 mph 1010.9mb 47f 60f
8:00pm 1 2 mph 1010.9mb 48f 60f
7:36pm 1 2 mph 1011mb 48f 62f
7:30pm 1 2 mph 1011mb 47f 62f
7:24pm 1 2 mph 1011.1mb 47f 63f
7:18pm  -  1 mph 1011.1mb 48f 63f
7:12pm  -  1 mph 1011.2mb 47f 63f
7:06pm  -  2 mph 1011.3mb 47f 62f
7:00pm 1 2 mph 1011.4mb 47f 61f
6:36pm 6 7 mph 1011.6mb 48f 61f
6:30pm 7 8 mph 1011.7mb 47f 62f
6:24pm 5 6 mph 1011.8mb 47f 62f
6:18pm 3 5 mph 1011.7mb 47f 62f
6:12pm 3 6 mph 1011.8mb 47f 61f
6:06pm 5
mph
1011.9mb 47f 62f
6:00pm 3 5 mph 1011.7mb 47f 61f
5:36pm 2 3 mph 1011.9mb 47f 62f
5:30pm 2 5 mph 1011.9mb 48f 61f
5:24pm 3 5 mph 1012mb 47f 62f
5:18pm 2 5 mph 1012mb 47f 62f
5:12pm 5 6 mph 1012.2mb 47f 62f
5:06pm 5 6 mph 1012.2mb 47f 62f
5:00pm 5 6 mph 1012.1mb 47f 62f
4:36pm 3 5 mph 1012.1mb 47f 63f
4:30pm 3 5 mph 1012.2mb 47f 63f
4:24pm 3 5 mph 1012.2mb 47f 62f
4:18pm 3 5 mph 1012.3mb 48f 62f
4:12pm 5 6 mph 1012.4mb 48f 62f
4:06pm 3 5 mph 1012.4mb 48f 62f
4:00pm 5
mph
1012.5mb 48f 62f
3:36pm 3 6 mph 1012.8mb 48f 62f
3:30pm 3 5 mph 1012.8mb 49f 61f
3:24pm 5 6 mph 1012.9mb 49f 62f
3:18pm 5 6 mph 1012.9mb 49f 62f
3:12pm 3 6 mph 1013mb 49f 61f
3:06pm 3 5 mph 1013mb 49f 61f
3:00pm 3 6 mph 1013.1mb 49f 61f
2:54pm 3 6 mph 1013.1mb 49f 61f
2:48pm 5 6 mph 1013.2mb 49f 61f
2:36pm 5 6 mph 1013.4mb 49f 61f
2:30pm 3 5 mph 1013.4mb 49f 61f
2:24pm 3 5 mph 1013.4mb 49f 61f
2:18pm 3 6 mph 1013.5mb 49f 61f
2:12pm 5 6 mph 1013.5mb 49f 61f
2:06pm 5 6 mph 1013.5mb 48f 62f
2:00pm 5 6 mph 1013.4mb 48f 62f
1:54pm 3 5 mph 1013.5mb 49f 61f
1:48pm 2 6 mph 1013.5mb 48f 60f
1:36pm 5 6 mph 1013.6mb 48f 61f
1:30pm 5 6 mph 1013.7mb 49f 62f
1:24pm 6 7 mph 1013.7mb 48f 63f
1:18pm 5 6 mph 1013.6mb 48f 65f
1:12pm 2 6 mph 1013.4mb 48f 65f
1:06pm 3 6 mph 1013.5mb 48f 66f
1:00pm 3 5 mph 1013.4mb 48f 66f
12:54pm 3 5 mph 1013.5mb 48f 67f
12:48pm  -  1 mph 1013.5mb 48f 68f
12:36pm  -  1 mph 1013.7mb 48f 67f
12:30pm 2
mph
1013.7mb 47f 66f
12:24pm 1 2 mph 1013.6mb 48f 67f
12:18pm 2
mph
1013.7mb 47f 67f
12:12pm 2 3 mph 1013.6mb 47f 67f
12:06pm 2
mph
1013.6mb 47f 67f
12:00pm 2
mph
1013.6mb 47f 65f
11:54am 1
mph
1013.6mb 47f 64f
11:48am 1 2 mph 1013.7mb 48f 63f
11:36am 1 3 mph 1013.7mb 47f 62f
11:30am 3
mph
1013.7mb 47f 61f
11:24am 3 5 mph 1013.7mb 47f 61f
11:18am 3
mph
1013.7mb 47f 62f
11:12am 2 3 mph 1013.7mb 47f 61f
11:06am 1 2 mph 1013.6mb 47f 61f
11:00am 2
mph
1013.7mb 47f 61f
10:54am 1
mph
1013.7mb 47f 61f
10:48am 1 2 mph 1013.7mb 47f 61f
10:36am 1 3 mph 1013.7mb 47f 60f
10:30am 2
mph
1013.6mb 47f 59f
10:24am 2
mph
1013.6mb 47f 59f
10:18am 1 2 mph 1013.7mb 47f 59f
10:12am 1 2 mph 1013.8mb 47f 59f
10:06am 1 2 mph 1013.8mb 47f 59f
10:00am 2 3 mph 1013.7mb 47f 58f
9:54am 2 3 mph 1013.7mb 47f 58f
9:48am 2 6 mph 1013.7mb 47f 58f
9:36am  -  5 mph 1013.6mb 47f 61f
9:30am 6 7 mph 1013.6mb 47f 66f
9:24am 3 5 mph 1013.7mb 47f 63f
9:18am 2 6 mph 1013.8mb 48f 64f
9:12am 5 7 mph 1013.9mb 47f 64f
9:06am 3 6 mph 1013.9mb 47f 63f
9:00am 3 6 mph 1013.9mb 47f 63f
8:54am 5 7 mph 1013.9mb 47f 62f
8:48am 5 7 mph 1014mb 47f 62f
8:36am 6 7 mph 1013.9mb 48f 61f
8:30am 3 6 mph 1014mb 48f 61f
8:24am 6 7 mph 1013.9mb 48f 60f
8:18am 1 6 mph 1014mb 48f 60f
8:12am 3 7 mph 1013.9mb 48f 59f
8:06am 6 9 mph 1013.9mb 48f 59f
8:00am 7 9 mph 1013.9mb 48f 59f
7:36am 6 11 mph 1014mb 48f 59f
7:30am 8 10 mph 1013.9mb 48f 60f
7:24am 6 9 mph 1013.9mb 48f 59f
7:18am 6 9 mph 1013.9mb 48f 59f
7:12am 7 9 mph 1013.8mb 48f 58f
7:06am 5 8 mph 1013.8mb 48f 58f
7:00am 7 9 mph 1013.7mb 48f 58f
6:54am 5 9 mph 1013.8mb 48f 58f
6:48am 9 10 mph 1013.8mb 48f 57f
6:36am 6 8 mph 1013.8mb 48f 57f
6:30am 7 9 mph 1013.8mb 48f 57f
6:24am 6 7 mph 1013.8mb 48f 57f
6:18am 5 7 mph 1013.9mb 48f 55f
6:12am 1 5 mph 1014mb 49f 56f
6:06am 3 6 mph 1013.9mb 49f 56f
6:00am 5 6 mph 1013.8mb 49f 56f
5:54am 2 7 mph 1013.8mb 49f 56f
5:48am 6 7 mph 1013.7mb 49f 56f
5:36am 2 5 mph 1013.8mb 49f 56f
5:30am 3 6 mph 1013.8mb 49f 56f
5:24am 2 3 mph 1013.8mb 49f 55f
5:18am 3 5 mph 1013.8mb 49f 55f
5:12am 2
mph
1013.8mb 49f 56f
5:06am 1 3 mph 1013.9mb 49f 56f
5:00am 3
mph
1013.9mb 49f 55f
4:54am 1 2 mph 1014mb 49f 55f
4:48am 1 3 mph 1013.9mb 49f 55f
4:36am 1
mph
1013.9mb 49f 56f
4:30am 2 6 mph 1014mb 49f 57f
4:24am 6 7 mph 1014mb 50f 58f
4:18am 3 5 mph 1013.9mb 50f 58f
4:12am 3 5 mph 1013.8mb 50f 58f
4:06am 3 7 mph 1013.8mb 50f 58f
4:00am 6 7 mph 1013.9mb 51f 57f
3:54am 3 6 mph 1013.9mb 51f 59f
3:48am 3 7 mph 1013.9mb 51f 58f
3:36am 3 7 mph 1013.9mb 51f 57f
3:30am 5 7 mph 1013.9mb 52f 57f
3:24am 5 6 mph 1014mb 52f 58f
3:18am 5 6 mph 1014.1mb 52f 58f
3:12am 5 6 mph 1014.1mb 52f 58f
3:06am 5 6 mph 1014.1mb 53f 58f
3:00am 5 6 mph 1014.2mb 53f 58f
2:54am 3 5 mph 1014.2mb 54f 56f
2:48am 5 6 mph 1014.3mb 54f 57f
2:36am 3
mph
1014.4mb 55f 56f
2:30am 2 3 mph 1014.4mb 55f 57f
2:24am 2 5 mph 1014.5mb 55f 57f
2:18am 3 6 mph 1014.6mb 56f 56f
2:12am 3 5 mph 1014.6mb 56f 56f
2:06am 5 6 mph 1014.6mb 56f 55f
2:00am  -  1 mph 1014.7mb 57f 55f
1:54am  -  1 mph 1014.7mb 57f 55f
1:48am  -  1 mph 1014.8mb 56f 55f
1:36am 2 3 mph 1014.8mb 56f 56f
1:30am 2 3 mph 1014.9mb 56f 56f
1:24am 2 3 mph 1014.9mb 57f 58f
1:18am 2 3 mph 1014.9mb 57f 59f
1:12am 1 2 mph 1015mb 57f 59f
1:06am 2
mph
1014.9mb 56f 58f
1:00am 2
mph
1015mb 56f 56f
12:54am  -  1 mph 1015mb 56f 56f
12:48am  -  2 mph 1015.1mb 56f 56f
12:36am 1 2 mph 1015mb 54f 56f
12:30am  -  2 mph 1015mb 52f 56f
12:24am 1 2 mph 1015mb 51f 56f
12:18am  -  mph 1015mb 51f 56f
12:12am  -  1 mph 1015.1mb 50f 56f
12:06am  -  1 mph 1015mb 50f 56f
12:00am  -  1 mph 1015mb 50f 55f
Thu 08/25 11:54pm  -  1 mph 1015mb 49f 56f
11:48pm  -  1 mph 1015.1mb 49f 56f
11:36pm  -  1 mph 1015.2mb 49f 55f
11:30pm  -  1 mph 1015.1mb 49f 56f
11:24pm  -  1 mph 1015.2mb 49f 55f
11:18pm  -  1 mph 1015.2mb 49f 55f
11:12pm 1 3 mph 1015.2mb 49f 55f
11:06pm 3 5 mph 1015.2mb 49f 55f
11:00pm 3
mph
1015.1mb 49f 55f
10:54pm 2 6 mph 1015.1mb 49f 55f
10:48pm 5 6 mph 1015.2mb 49f 56f
10:36pm 5 6 mph 1015.3mb 48f 56f
10:30pm 2 5 mph 1015.4mb 49f 55f
10:24pm 1 2 mph 1015.4mb 48f 55f
10:18pm 1 5 mph 1015.4mb 48f 56f
10:12pm 5 6 mph 1015.5mb 48f 56f
10:06pm 5 6 mph 1015.6mb 48f 56f
10:00pm 5 7 mph 1015.6mb 48f 57f
9:54pm 3 7 mph 1015.7mb 48f 57f
9:48pm 5 7 mph 1015.8mb 48f 58f
9:36pm  -  1 mph 1015.9mb 48f 58f
9:30pm  -  1 mph 1015.8mb 48f 58f
9:24pm  -  2 mph 1015.8mb 48f 58f
9:18pm 1 3 mph 1015.8mb 48f 58f
9:12pm 1 5 mph 1015.9mb 48f 59f
9:06pm 3 6 mph 1016mb 48f 60f
9:00pm 7 8 mph 1015.9mb 48f 60f
8:54pm 5 7 mph 1015.8mb 48f 60f
8:48pm 6 8 mph 1015.8mb 48f 61f
8:36pm  -  2 mph 1015.6mb 48f 62f
8:30pm 2 8 mph 1015.6mb 48f 61f
8:24pm 7 11 mph 1015.6mb 48f 61f
8:18pm 7 11 mph 1015.6mb 48f 62f
8:12pm 7 10 mph 1015.6mb 48f 63f
8:06pm 8 10 mph 1015.6mb 48f 63f
8:00pm 9 11 mph 1015.6mb 48f 62f
7:54pm 9 11 mph 1015.6mb 48f 62f
7:48pm 8 11 mph 1015.5mb 48f 63f
7:36pm 14 17 mph 1015.6mb 48f 61f
7:30pm 15 21 mph 1015.6mb 48f 62f
7:24pm 16 20 mph 1015.5mb 48f 63f
7:18pm 15 17 mph 1015.5mb 48f 64f
7:12pm 14 15 mph 1015.5mb 48f 63f
7:06pm 13 17 mph 1015.5mb 48f 66f
7:00pm 16 21 mph 1015.6mb 48f 66f
6:54pm 16 21 mph 1015.8mb 48f 65f
6:48pm 17 21 mph 1015.7mb 48f 64f
6:36pm 16 20 mph 1015.7mb 48f 63f
6:30pm 14 17 mph 1015.7mb 48f 63f
6:24pm 13 18 mph 1015.8mb 48f 64f
6:18pm 11 17 mph 1015.8mb 48f 63f
6:12pm 14 20 mph 1015.9mb 48f 62f
6:06pm 13 18 mph 1016mb 48f 62f
6:00pm 15 18 mph 1016mb 48f 62f
5:54pm 11 14 mph 1016mb 48f 63f
5:48pm 6 10 mph 1015.9mb 48f 64f
5:36pm 10 16 mph 1015.9mb 47f 66f
5:30pm 6 9 mph 1016.1mb 48f 64f
5:24pm 2 7 mph 1016.1mb 48f 66f
5:18pm 7 16 mph 1016.2mb 48f 66f
5:12pm 11 16 mph 1016.4mb 48f 66f
5:06pm 8 14 mph 1016.4mb 48f 66f
5:00pm 6 11 mph 1016.4mb 48f 65f
4:54pm 8 14 mph 1016.6mb 48f 64f
4:48pm 5 7 mph 1016.7mb 48f 66f
4:36pm 6 8 mph 1016.7mb 48f 65f
4:30pm 7 9 mph 1016.7mb 48f 66f
4:24pm 7 10 mph 1016.7mb 48f 68f
4:18pm 8 11 mph 1016.7mb 48f 68f
4:12pm 9 11 mph 1016.8mb 48f 67f
4:06pm 8 10 mph 1016.9mb 48f 67f
4:00pm 9 15 mph 1016.9mb 48f 66f
3:36pm 7 9 mph 1017mb 48f 66f
3:30pm 9 11 mph 1017.1mb 47f 67f
3:24pm 10 11 mph 1017.1mb 47f 65f
3:18pm 8 10 mph 1017.3mb 48f 64f
3:12pm 9 10 mph 1017.4mb 48f 64f
3:06pm 8 10 mph 1017.5mb 48f 64f
3:00pm 9 11 mph 1017.6mb 48f 65f
2:54pm 10 13 mph 1017.7mb 48f 64f
2:48pm 7 9 mph 1017.8mb 48f 64f
2:36pm 5 7 mph 1017.9mb 49f 63f
2:30pm 6 8 mph 1018mb 49f 63f
2:24pm 6 7 mph 1018.1mb 49f 62f
2:18pm 6 7 mph 1018.2mb 49f 61f
2:12pm 6 7 mph 1018.2mb 49f 61f
2:06pm 6 8 mph 1018.3mb 49f 62f
2:00pm 6 7 mph 1018.4mb 49f 62f
1:54pm 5 7 mph 1018.4mb 49f 61f
1:48pm 6 7 mph 1018.6mb 49f 60f
1:36pm 6
mph
1018.7mb 49f 61f
1:30pm 6
mph
1018.8mb 49f 60f
1:24pm 6
mph
1018.8mb 49f 60f
1:18pm 6
mph
1018.9mb 49f 60f
1:12pm 5 7 mph 1018.9mb 49f 60f
1:06pm 6 7 mph 1018.9mb 49f 60f
1:00pm 6 7 mph 1019mb 48f 60f
12:54pm 5 6 mph 1019.1mb 48f 61f
12:48pm 5 6 mph 1019mb 48f 61f
12:36pm 3 6 mph 1019.1mb 48f 61f
12:30pm 5
mph
1019.2mb 48f 62f
12:24pm 2 3 mph 1019.2mb 48f 60f
12:18pm 3 5 mph 1019.2mb 48f 61f
12:12pm 2 3 mph 1019.2mb 48f 60f
12:06pm 2 3 mph 1019.3mb 48f 60f
12:00pm 2 5 mph 1019.4mb 47f 60f
11:54am 5 6 mph 1019.5mb 47f 60f
11:48am 5 6 mph 1019.5mb 48f 60f
11:36am 3
mph
1019.6mb 47f 60f
11:30am 3 5 mph 1019.6mb 47f 60f
11:24am 5
mph
1019.6mb 47f 60f
11:18am 2 5 mph 1019.6mb 47f 61f
11:12am 3 5 mph 1019.6mb 47f 61f
11:06am 1 2 mph 1019.7mb 47f 60f
11:00am 2 3 mph 1019.7mb 47f 60f
10:54am 2
mph
1019.7mb 46f 60f
10:48am 2 3 mph 1019.7mb 46f 60f
10:36am 2
mph
1019.8mb 47f 59f
10:30am 2
mph
1019.8mb 47f 58f
10:24am 2 3 mph 1019.9mb 47f 59f
10:18am 3 5 mph 1019.9mb 47f 60f
10:12am 2
mph
1019.9mb 46f 60f
10:06am 1 5 mph 1019.9mb 46f 59f
10:00am 5
mph
1019.9mb 46f 61f
9:54am 3 5 mph 1019.9mb 45f 59f
9:48am 3 5 mph 1019.9mb 45f 60f
9:36am 3 5 mph 1020mb 45f 61f
9:30am 2 3 mph 1020mb 45f 64f
9:24am 3 5 mph 1020.1mb 45f 67f
9:18am 2 3 mph 1020.1mb 45f 66f
9:12am  -  2 mph 1020.1mb 45f 64f
9:06am 1 2 mph 1020.2mb 46f 65f
9:00am 1 3 mph 1020.2mb 46f 64f
8:36am 5 9 mph 1020.2mb 46f 61f
8:30am 7 11 mph 1020.1mb 46f 60f
8:24am 9 13 mph 1020.1mb 46f 60f
8:18am 9 11 mph 1020mb 46f 60f
8:12am 8 10 mph 1020mb 47f 59f
8:06am 7 10 mph 1020mb 47f 59f
8:00am 8 10 mph 1020mb 47f 58f
7:54am 8 11 mph 1020mb 48f 58f
7:48am 9 11 mph 1020mb 48f 58f
7:36am 9 13 mph 1020.1mb 48f 57f
7:30am 7 10 mph 1020.1mb 48f 57f
7:24am 6 10 mph 1020.2mb 48f 57f
7:18am 6 11 mph 1020.2mb 48f 57f
7:12am 8 11 mph 1020.2mb 48f 57f
7:06am 8 10 mph 1020.2mb 48f 56f
7:00am 5 9 mph 1020.2mb 48f 56f
6:54am 5 7 mph 1020.1mb 48f 56f
6:48am 5 8 mph 1020.1mb 49f 55f
6:36am 6 10 mph 1019.9mb 49f 56f
6:30am 8 10 mph 1019.9mb 49f 56f
6:24am 6 9 mph 1020mb 49f 56f
6:18am 5 9 mph 1020mb 49f 56f
6:12am 5 7 mph 1020mb 49f 56f
6:06am 6 11 mph 1020mb 49f 56f
6:00am 8 13 mph 1020mb 49f 56f
5:54am 10 13 mph 1019.9mb 49f 57f
5:48am 10 13 mph 1019.9mb 49f 57f
5:36am 7 11 mph 1020mb 49f 58f
5:30am 6 10 mph - - 58f
5:24am 7 11 mph 1020mb 49f 58f
5:18am 7 13 mph 1020mb 49f 57f
5:12am 8 10 mph 1020.1mb 49f 56f
5:06am 7 9 mph 1020.1mb 49f 57f
5:00am 6 9 mph 1020.2mb 49f 57f
4:54am 5 11 mph 1020.1mb 49f 58f
4:48am 8 14 mph 1020.1mb 49f 59f
4:36am 10 14 mph 1020mb 49f 58f
4:30am 8 11 mph 1020.1mb 49f 58f
4:24am 8 11 mph 1020.1mb 49f 58f
4:18am 5 7 mph 1020.1mb 49f 58f
4:12am 5 9 mph 1020.2mb 49f 58f
4:06am 5 8 mph 1020.2mb 49f 58f
4:00am 6 9 mph 1020.2mb 49f 59f
3:54am 9 14 mph 1020.1mb 50f 60f
3:48am 11 14 mph 1020mb 49f 59f
3:36am 5 6 mph 1020.2mb 50f 56f
3:30am 2 3 mph 1020.3mb 50f 57f
3:24am 2 6 mph 1020.3mb 50f 58f
3:18am 2 5 mph 1020.3mb 50f 57f
3:12am  -  2 mph 1020.3mb 50f 56f
3:06am  -  2 mph 1020.3mb 51f 56f
3:00am 3 6 mph 1020.4mb 51f 56f
2:54am 5 7 mph 1020.4mb 51f 56f
2:48am 6 8 mph 1020.5mb 51f 60f
2:36am 6 8 mph 1020.3mb 51f 60f
2:30am 1 6 mph 1020.4mb 51f 60f
2:24am 2 9 mph 1020.4mb 51f 61f
2:18am 8 11 mph 1020.3mb 51f 61f
2:12am 10 11 mph 1020.3mb 52f 61f
2:06am 7 9 mph 1020.3mb 52f 61f
2:00am 7 11 mph 1020.3mb 52f 62f
1:54am 9 11 mph 1020.3mb 53f 62f
1:48am 9 13 mph 1020.3mb 53f 62f
1:36am 10 13 mph 1020.3mb 54f 61f
1:30am 9 11 mph 1020.3mb 54f 61f
1:24am 8 11 mph 1020.4mb 55f 62f
1:18am 10 11 mph 1020.4mb 55f 62f
1:12am 7 10 mph 1020.4mb 55f 62f
1:06am 8 13 mph 1020.4mb 55f 62f
1:00am 10 13 mph 1020.4mb 56f 62f
12:54am 9 11 mph 1020.4mb 56f 62f
12:48am 9 11 mph 1020.4mb 56f 62f
12:36am 9 11 mph 1020.5mb 57f 62f
12:30am 8 10 mph 1020.5mb 57f 62f
12:24am 5 8 mph 1020.5mb 57f 62f
12:18am 3 6 mph 1020.6mb 57f 62f
12:12am 3 7 mph 1020.5mb 57f 63f
12:06am 5 6 mph 1020.6mb 57f 63f
12:00am 3 7 mph 1020.6mb 57f 62f
Wed 08/24 11:54pm 3 6 mph 1020.5mb 57f 62f
11:48pm 2 9 mph 1020.5mb 57f 63f
11:36pm 5 6 mph 1020.5mb 56f 60f
11:30pm 1 2 mph 1020.5mb 56f 60f
11:24pm 1 2 mph 1020.6mb 55f 60f
11:18pm  -  1 mph 1020.6mb 53f 61f
11:12pm 1 2 mph 1020.7mb 52f 59f
11:06pm 1 3 mph 1020.7mb 52f 59f
11:00pm 2 3 mph 1020.8mb 51f 60f
10:54pm 1 5 mph 1020.7mb 51f 60f
10:48pm 1 6 mph 1020.7mb 51f 60f
10:36pm 3 5 mph 1020.8mb 50f 61f
10:30pm 2 5 mph 1020.8mb 50f 62f
10:24pm  -  2 mph 1020.8mb 50f 64f
10:18pm  -  2 mph 1020.8mb 50f 64f
10:12pm  -  2 mph 1021mb 50f 64f
10:06pm  -  3 mph 1021mb 50f 65f
10:00pm  -  3 mph 1021.1mb 49f 65f
9:54pm 2
mph
1021mb 49f 64f
9:48pm 2 3 mph 1021.1mb 49f 64f
9:36pm  -  6 mph 1021.1mb 49f 64f
9:30pm 5 8 mph 1021mb 49f 63f
9:24pm 6 7 mph 1021mb 49f 63f
9:18pm 3 5 mph 1021.1mb 49f 65f
9:12pm 3 6 mph 1021.1mb 49f 63f
9:06pm 3 6 mph 1021mb 49f 62f
9:00pm 5 6 mph 1020.9mb 49f 63f
8:54pm 1 5 mph 1020.9mb 49f 63f
8:48pm 2 7 mph 1021mb 49f 63f
8:36pm 7 9 mph 1020.8mb 49f 64f
8:30pm 8 14 mph 1020.8mb 49f 66f
8:24pm 11 16 mph 1020.7mb 49f 66f
8:18pm 15 16 mph 1020.7mb 49f 65f
8:12pm 14 17 mph 1020.7mb 49f 63f
8:06pm 15 20 mph 1020.7mb 49f 64f
8:00pm 16 18 mph 1020.8mb 49f 64f
7:54pm 14 17 mph 1020.7mb 49f 65f
7:48pm 14 22 mph 1020.7mb 49f 67f
7:36pm 15 17 mph 1020.7mb 49f 66f
7:30pm 15 17 mph 1020.8mb 49f 67f
7:24pm 15 17 mph 1020.7mb 49f 63f
7:18pm 16 20 mph 1020.8mb 49f 63f
7:12pm 17 20 mph 1020.8mb 49f 63f
7:06pm 16 20 mph 1020.8mb 49f 63f
7:00pm 16 22 mph 1020.8mb 49f 65f
6:54pm 17 22 mph 1020.9mb 49f 65f
6:48pm 18 22 mph 1020.9mb 49f 65f
6:36pm 18 22 mph 1020.9mb 49f 61f
6:30pm 17 22 mph 1020.9mb 49f 61f
6:24pm 16 20 mph 1021mb 49f 62f
6:18pm 15 18 mph 1021mb 49f 63f
6:12pm 16 20 mph 1020.9mb 49f 63f
6:06pm 16 20 mph 1020.9mb 49f 63f
6:00pm 14 17 mph 1020.9mb 48f 63f
5:54pm 13 18 mph 1020.9mb 48f 63f
5:48pm 14 17 mph 1020.9mb 49f 61f
5:36pm 11 16 mph 1021mb 49f 62f
5:30pm 14 20 mph 1021mb 49f 65f
5:24pm 17 20 mph 1021.1mb 49f 64f
5:18pm 16 18 mph 1021.2mb 49f 64f
5:12pm 13 16 mph 1021.2mb 48f 65f
5:06pm 16 21 mph 1021.2mb 48f 68f
5:00pm 17 22 mph 1021.2mb 48f 69f
4:54pm 18 23 mph 1021.2mb 48f 71f
4:48pm 18 23 mph 1021.2mb 48f 73f
4:36pm 17 21 mph 1021.2mb 48f 73f
4:30pm 17 22 mph 1021.3mb 48f 74f
4:24pm 18 22 mph 1021.3mb 48f 74f
4:18pm 17 21 mph 1021.3mb 48f 72f
4:12pm 18 21 mph 1021.4mb 48f 73f
4:06pm 18 21 mph 1021.4mb 48f 69f
4:00pm 17 22 mph 1021.4mb 48f 69f
3:54pm 17 20 mph 1021.5mb 48f 66f
3:48pm 15 20 mph 1021.5mb 48f 66f
3:36pm 10 16 mph 1021.6mb 48f 65f
3:30pm 8 15 mph 1021.7mb 48f 65f
3:24pm 14 21 mph 1021.8mb 48f 67f
3:18pm 16 21 mph 1021.7mb 48f 67f
3:12pm 16 22 mph 1021.7mb 48f 68f
3:06pm 18 23 mph 1021.8mb 48f 65f
3:00pm 16 21 mph 1021.9mb 48f 67f
2:54pm 14 20 mph 1021.9mb 48f 68f
2:48pm 10 14 mph 1021.9mb 49f 68f
2:36pm 10 14 mph 1022.1mb 48f 68f
2:30pm 5 8 mph 1022.1mb 48f 63f
2:24pm 5 6 mph 1022.3mb 48f 62f
2:18pm 3 8 mph 1022.3mb 49f 62f
2:12pm 3 6 mph 1022.5mb 49f 61f
2:06pm 3 6 mph 1022.6mb 49f 59f
2:00pm 6 7 mph 1022.6mb 49f 60f
1:54pm 3 6 mph 1022.7mb 48f 58f
1:48pm 3 5 mph 1022.8mb 49f 58f
1:36pm 6 7 mph 1022.8mb 49f 58f
1:30pm 5 6 mph 1022.9mb 49f 57f
1:24pm 5 6 mph 1023mb 49f 57f
1:18pm 5 6 mph 1023.1mb 49f 57f
1:12pm 3 6 mph 1023.1mb 49f 58f
1:06pm 5 6 mph 1023.1mb 49f 58f
1:00pm 5 6 mph 1023.2mb 49f 57f
12:54pm 3 5 mph 1023.2mb 49f 57f
12:48pm 3 5 mph 1023.3mb 49f 57f
12:36pm 5
mph
1023.4mb 49f 57f
12:30pm 3
mph
1023.5mb 49f 56f
12:24pm 3 6 mph 1023.5mb 49f 56f
12:18pm 5 6 mph 1023.6mb 49f 56f
12:12pm 5 6 mph 1023.7mb 49f 56f
12:06pm 6 8 mph 1023.8mb 49f 56f
12:00pm 6 8 mph 1023.8mb 49f 56f
11:54am 7 8 mph 1023.9mb 49f 55f
11:48am 7 8 mph 1023.9mb 49f 56f
11:36am 3 6 mph 1023.8mb 49f 56f
11:30am 5
mph
1023.9mb 49f 56f
11:24am 5
mph
1023.8mb 49f 56f
11:18am 5 6 mph 1023.8mb 49f 57f
11:12am 3 5 mph 1023.8mb 49f 57f
11:06am 3 5 mph 1023.8mb 49f 57f
11:00am 3 5 mph 1023.8mb 49f 57f
10:36am 3 6 mph 1023.9mb 49f 57f
10:30am 5 6 mph 1023.9mb 49f 57f
10:24am 5 6 mph 1023.8mb 49f 57f
10:18am 5 6 mph 1023.8mb 49f 58f
10:12am 5
mph
1023.8mb 49f 58f
10:06am 3 5 mph 1023.8mb 49f 58f
10:00am 5
mph
1023.8mb 49f 57f
9:54am 3 5 mph 1023.7mb 49f 57f
9:36am 2 5 mph 1023.7mb 49f 55f
9:30am 2 5 mph 1023.8mb 48f 56f
9:24am 1 3 mph 1023.8mb 48f 55f
9:18am 3 6 mph 1023.9mb 48f 57f
9:12am 3 5 mph 1023.8mb 48f 59f
9:06am 3
mph
1023.8mb 48f 58f
9:00am 3 5 mph 1023.7mb 48f 60f
8:54am 2 7 mph 1023.6mb 48f 59f
8:48am 6 7 mph 1023.6mb 48f 58f
8:36am 2 5 mph 1023.6mb 48f 57f
8:30am 3 5 mph 1023.6mb 48f 56f
8:24am 3 5 mph 1023.6mb 48f 55f
8:18am 2 3 mph 1023.7mb 48f 55f
8:12am 2 3 mph 1023.7mb 49f 55f
8:06am 2 3 mph 1023.7mb 48f 54f
8:00am 1 3 mph 1023.7mb 48f 54f
7:54am  -  2 mph 1023.7mb 48f 53f
7:48am  -  2 mph 1023.7mb 48f 52f
7:36am 2 6 mph 1023.7mb 49f 53f
7:30am 3 6 mph 1023.7mb 49f 52f
7:24am 2 5 mph 1023.6mb 49f 52f
7:18am 5 6 mph 1023.6mb 49f 51f
7:12am  -  5 mph 1023.5mb 49f 51f
7:06am 5 8 mph 1023.4mb 49f 51f
7:00am 6 8 mph 1023.3mb 49f 51f
6:54am 3 7 mph 1023.3mb 49f 51f
6:48am 2 6 mph 1023.3mb 49f 51f
6:36am 2 5 mph 1023.2mb 49f 51f
6:30am 3 6 mph 1023.2mb 49f 51f
6:24am 5 6 mph 1023.3mb 49f 51f
6:18am 3 5 mph 1023.3mb 49f 51f
6:12am 3 6 mph 1023.2mb 49f 51f
6:06am 3 6 mph 1023.2mb 49f 51f
6:00am 3 6 mph 1023.2mb 49f 50f
5:54am 1 7 mph 1023mb 49f 51f
5:48am 2 7 mph 1023mb 49f 51f
5:36am 3 6 mph 1022.9mb 49f 51f
5:30am 5 8 mph 1022.9mb 49f 51f
5:24am 5 7 mph 1022.8mb 49f 51f
5:18am 3 6 mph 1022.8mb 49f 51f
5:12am 3 7 mph 1022.8mb 49f 51f
5:06am 3 6 mph 1022.8mb 50f 51f
5:00am 3 7 mph 1022.9mb 49f 51f
4:54am 2 5 mph 1022.9mb 49f 51f
4:48am 2 5 mph 1022.9mb 50f 51f
4:36am 6 7 mph 1022.8mb 49f 51f
4:30am 5 7 mph 1022.8mb 50f 52f
4:24am 6 7 mph 1022.8mb 49f 52f
4:18am 5 6 mph 1022.8mb 50f 52f
4:12am 5 6 mph 1022.8mb 50f 52f
4:06am 5 7 mph 1022.8mb 50f 53f
4:00am 5 7 mph 1022.8mb 50f 53f
3:54am 5 9 mph 1022.7mb 50f 53f
3:48am 6 7 mph 1022.7mb 50f 52f
3:36am 2 3 mph 1022.7mb 49f 52f
3:30am 2 3 mph 1022.7mb 49f 52f
3:24am 2 3 mph 1022.7mb 49f 52f
3:18am 3 5 mph 1022.7mb 49f 52f
3:12am 5 6 mph 1022.7mb 49f 52f
3:06am 5 7 mph 1022.7mb 49f 52f
3:00am 5 8 mph 1022.7mb 49f 52f
2:54am 5 9 mph 1022.7mb 50f 53f
2:48am 6 8 mph 1022.6mb 50f 52f
2:36am 5 6 mph 1022.7mb 50f 52f
2:30am 3 5 mph 1022.7mb 50f 53f
2:24am 2 5 mph 1022.7mb 50f 52f
2:18am 3 5 mph 1022.7mb 50f 53f
2:12am 5 6 mph 1022.8mb 51f 52f
2:06am 2 5 mph 1022.8mb 51f 52f
2:00am 2 3 mph 1022.7mb 51f 52f
1:54am 1 2 mph 1022.7mb 51f 52f
1:48am 2 3 mph 1022.8mb 51f 52f
1:36am 3
mph
1022.8mb 52f 53f
1:30am 3
mph
1022.8mb 52f 53f
1:24am 3
mph
1022.8mb 52f 54f
1:18am 2 3 mph 1022.9mb 52f 54f
1:12am 2 3 mph 1022.9mb 52f 54f
1:06am 2 3 mph 1022.9mb 53f 55f
1:00am 2
mph
1022.9mb 53f 55f
12:54am 1 2 mph 1022.9mb 53f 55f
12:48am 2 3 mph 1023mb 54f 55f
12:36am 2 5 mph 1023mb 55f 53f
12:30am 3 5 mph 1023mb 55f 53f
12:24am 5
mph
1022.9mb 56f 53f
12:18am 2 3 mph 1023mb 56f 53f
12:12am 1 3 mph 1023mb 56f 53f
12:06am 2 3 mph 1023mb 57f 54f
12:00am 2
mph
1023mb 57f 55f
Tue 08/23 11:54pm  -  1 mph 1023mb 57f 55f
11:48pm  -  2 mph 1023mb 58f 55f
11:36pm 1 3 mph 1023.1mb 58f 55f
11:30pm 2
mph
1023.1mb 58f 55f
11:24pm  -  mph 1023.1mb 58f 55f
11:18pm  -  mph 1023.1mb 58f 55f
11:12pm  -  1 mph 1023mb 58f 55f
11:06pm 1 3 mph 1023mb 58f 55f
11:00pm 2 3 mph 1023mb 58f 55f
10:54pm 2 5 mph 1022.9mb 58f 55f
10:48pm 2 3 mph 1022.9mb 58f 55f
10:36pm  -  1 mph 1022.8mb 57f 56f